[[{"header":{"parameterUnit":"m.s-1","parameterCategory":1,"la1":30.2991,"la2":30.254,"lo1":-89.0895,"lo2":-89.0444,"dy":0.0017,"dx":0.0017,"nx":28,"ny":28,"refTime":"2023-08-05T03:00:00:Z","depth":0,"parameterNumber":2,"parameterNumberName":"U-component_of_WINDS"},"data":[0,0,0,0,0,0,0,0,0,0,0,0,0,0,0,0,0,0,0,0,0,0,0,0,0,0,0,0,0,0,0,0,0,0,0,0,0,0,0,0,0,0,0,0,0,0,0,0,0,0,0,0,0,0,0,0,0,0,5.7191,5.7193,0,5.7355,5.7357,5.7359,5.729,5.7286,5.7282,5.7279,5.7448,5.7455,5.7463,0,0,0,0,0,0,0,0,0,0,0,0,0,5.682,5.6827,5.7191,5.7193,5.7195,5.7355,5.7357,5.7359,5.7291,5.7286,5.7281,5.7277,5.7445,5.7454,5.7464,0,0,0,0,0,0,0,0,0,0,0,0,0,5.6982,5.6829,5.7191,5.718,5.7181,5.7354,5.7357,5.736,5.7292,5.7286,5.728,5.7275,5.7442,5.7453,5.7466,5.7659,0,0,5.7503,5.7508,0,0,0,0,0,0,0,0,5.6973,5.6996,5.718,5.7182,5.7183,5.7296,5.7288,5.746,5.7293,5.725,5.7279,5.7272,5.7402,5.7417,5.7461,5.7667,5.7674,5.7504,5.7511,5.7517,5.752,0,0,0,0,0,0,0,5.6962,5.6988,5.7256,5.7183,5.7184,5.7168,5.7184,5.732,5.7357,5.7253,5.7249,5.7269,5.7402,5.7449,5.7464,5.7677,5.7504,5.7515,5.7522,5.7527,5.8047,5.8053,0,0,0,0,0,0,5.695,5.6979,5.7251,5.7261,5.7061,5.7179,5.7198,5.7266,5.7355,5.7363,5.7274,5.7265,5.7431,5.745,5.747,5.77,5.7517,5.7528,5.7535,5.8041,5.8049,5.8056,0,0,0,0,0,0,5.6943,5.6975,5.7244,5.7119,5.7152,5.7192,5.7269,5.7272,5.7319,5.7371,5.7377,5.7316,5.7427,5.7453,5.7612,5.7705,5.7534,5.7545,5.8033,5.8043,5.8052,5.8164,0,0,0,0,0,0,5.6932,5.6973,5.7047,5.7121,5.7159,5.7384,5.7275,5.7279,5.7341,5.7331,5.7412,5.7419,5.7425,5.7594,5.7624,5.7719,5.7554,5.8025,5.8038,5.8049,5.8152,5.8176,5.8197,0,0,0,0,0,5.6919,5.7072,5.7051,5.7084,5.7252,5.7389,5.7411,5.7413,5.7348,5.7423,5.7456,5.7417,5.7691,5.7611,5.7644,5.7744,5.8019,5.8034,5.8048,5.8142,5.8171,5.8196,0,0,0,0,0,0,5.7009,5.7082,5.7059,5.7241,5.7309,5.7377,5.7471,5.7445,5.7533,5.7521,5.752,5.7539,5.7703,5.774,5.765,5.7935,5.7845,5.7867,5.7905,5.7933,5.7955,5.7942,5.7564,0,0,0,0,0,5.7049,5.7154,5.7213,5.7368,5.7403,5.7432,5.7492,5.7487,5.7558,5.7587,5.7632,5.7702,5.7804,5.7871,5.7967,5.8157,5.8173,5.8243,5.8265,5.8283,5.8302,5.8403,5.8434,5.8104,5.8104,5.8103,0,0,5.7135,5.7188,5.7254,5.7387,5.7439,5.7548,5.7456,5.7576,5.7656,5.7605,5.7757,5.7793,5.7872,5.8047,5.8126,5.8082,5.8397,5.8302,5.8316,5.8325,5.8421,5.8452,5.848,5.8114,5.8112,5.811,0,0,5.7345,5.7397,5.753,5.7585,5.7665,5.7683,5.7715,5.7787,5.7808,5.7961,5.7925,5.8021,5.8197,5.8253,5.8305,5.8537,5.8504,5.8568,5.8685,5.8784,5.881,5.8833,5.8913,5.8943,5.8587,5.8587,5.8588,0,5.7441,5.7603,5.7602,5.7724,5.7783,5.7742,5.7876,5.7929,5.8038,5.8079,5.8029,5.8247,5.8297,5.8484,5.854,5.8584,5.862,5.8558,5.8806,5.8829,5.8851,5.8927,5.8958,5.8594,5.8594,5.8593,5.8592,0,5.7716,5.7829,5.7927,5.8031,5.8101,5.8229,5.8248,5.8319,5.8309,5.8332,5.8487,5.8546,5.8653,5.8697,5.8689,5.8883,5.8853,5.8805,5.8714,5.8889,5.8961,5.8991,5.8605,5.8602,5.86,5.8598,0,0,5.7987,5.8088,5.8124,5.817,5.8256,5.8343,5.8469,5.8572,5.8632,5.8709,5.8813,5.8962,5.8918,5.8977,5.8975,5.9062,5.9238,5.9003,5.9004,5.9042,5.9453,5.9487,5.9521,5.9218,5.9223,5.9228,5.9446,0,5.8202,5.8421,5.8424,5.8626,5.8729,5.8691,5.88,5.8864,5.8889,5.898,5.9008,5.9113,5.9047,5.9082,5.9167,5.9199,5.9321,5.9184,5.9314,5.9318,5.9293,5.9559,5.9596,5.9799,5.9474,5.9479,5.9482,0,5.8483,5.8566,5.8778,5.8847,5.889,5.8988,5.9082,5.9171,5.9242,5.9254,5.932,5.9304,5.9431,5.9338,5.9512,5.9419,5.9473,5.9497,5.9505,5.9515,5.941,5.9575,5.9864,5.9893,5.9527,5.9524,5.952,0,5.8656,5.8822,5.897,5.9011,5.9095,5.9165,5.9203,5.9269,5.9331,5.9414,5.9453,5.955,5.9603,5.9679,5.9689,5.9621,5.9865,5.9772,5.9877,5.9877,5.9928,5.9925,6.0227,5.9967,5.9966,5.9966,5.9965,0,5.8895,5.9026,5.9048,5.9139,5.9284,5.9286,5.9429,5.9462,5.952,5.9616,5.959,5.9681,5.9691,5.9784,5.9794,5.9936,5.996,5.9973,5.9973,5.9974,5.9972,6.0008,5.9993,5.9974,5.9972,5.997,5.9969,0,5.9113,5.9134,5.9292,5.9359,5.9378,5.9482,5.9539,5.9625,5.9647,5.9768,5.9797,5.9832,5.994,5.9959,6.0087,6.0093,6.0262,6.025,6.0238,6.0235,6.0338,6.0327,6.0673,6.0717,6.0429,6.0432,6.0434,0,5.9264,5.9363,5.944,5.9502,5.9543,5.9644,5.9706,5.9712,5.9778,5.9866,5.9942,6.0047,6.0132,6.0307,6.0343,6.0441,6.0429,6.0543,6.0443,6.044,6.0428,6.0421,6.043,6.0562,6.0565,6.0567,6.057,0,5.9527,5.9532,5.9623,5.9718,5.9792,5.9867,5.9938,5.999,6.0005,6.0081,6.0191,6.0256,6.0386,6.049,6.0587,6.0626,6.0601,6.0601,6.063,6.063,6.0618,6.0624,6.0288,6.0593,6.059,6.0589,6.0587,6.0586,5.9715,5.98,5.9867,5.9969,6.0022,6.0089,6.0172,6.0204,6.0296,6.0401,6.0399,6.052,6.0587,6.0714,6.076,6.0854,6.0817,6.086,6.087,6.088,6.0888,6.0605,6.0872,6.0871,6.0871,6.087,6.087,0,5.9975,6.0016,6.011,6.0208,6.0288,6.0257,6.0333,6.0401,6.0507,6.0573,6.0656,6.0781,6.0882,6.0927,6.1026,6.1092,6.1083,6.1118,6.1112,6.1121,6.0917,6.0881,6.1124,6.1124,6.1124,6.1124,6.1123,6.1123,6.012,6.0262,6.0275,6.0443,6.0483,6.06,6.0646,6.0707,6.0758,6.0899,6.0983,6.1011,6.1068,6.117,6.1261,6.1272,6.1308,6.1349,6.1354,6.1162,6.1136,6.1111,6.1077,6.1357,6.1358,6.1549,6.1551,6.1553]},{"header":{"parameterUnit":"m.s-1","parameterCategory":1,"la1":30.2991,"la2":30.254,"lo1":-89.0895,"lo2":-89.0444,"dy":0.0017,"dx":0.0017,"nx":28,"ny":28,"refTime":"2023-08-05T03:00:00:Z","depth":0,"parameterNumber":3,"parameterNumberName":"V-component_of_WINDS"},"data":[0,0,0,0,0,0,0,0,0,0,0,0,0,0,0,0,0,0,0,0,0,0,0,0,0,0,0,0,0,0,0,0,0,0,0,0,0,0,0,0,0,0,0,0,0,0,0,0,0,0,0,0,0,0,0,0,0,0,1.1822,1.1823,0,1.189,1.1891,1.1892,1.1893,1.1893,1.1892,1.1891,1.1961,1.1964,1.1967,0,0,0,0,0,0,0,0,0,0,0,0,0,1.1692,1.1695,1.1822,1.1823,1.1823,1.189,1.1891,1.1892,1.1894,1.1893,1.1892,1.1891,1.196,1.1964,1.1967,0,0,0,0,0,0,0,0,0,0,0,0,0,1.1753,1.1696,1.1822,1.1832,1.1834,1.189,1.1891,1.1892,1.1894,1.1893,1.1891,1.189,1.1959,1.1963,1.1967,1.2017,0,0,1.1979,1.1981,0,0,0,0,0,0,0,0,1.175,1.1758,1.183,1.1832,1.1834,1.1882,1.1871,1.1934,1.1894,1.1871,1.1891,1.1889,1.1936,1.1942,1.1957,1.202,1.2023,1.198,1.1982,1.1984,1.1985,0,0,0,0,0,0,0,1.1746,1.1755,1.1849,1.1831,1.1833,1.1834,1.1841,1.1883,1.191,1.1873,1.1873,1.1881,1.1937,1.1954,1.1959,1.2024,1.198,1.1983,1.1986,1.1987,1.213,1.2132,0,0,0,0,0,0,1.1739,1.1752,1.1847,1.1851,1.1788,1.1837,1.1845,1.1868,1.1909,1.1914,1.1882,1.1881,1.1947,1.1954,1.1962,1.2022,1.1984,1.1988,1.199,1.2129,1.2131,1.2132,0,0,0,0,0,0,1.1737,1.1748,1.1844,1.1801,1.1814,1.184,1.1866,1.187,1.1887,1.1916,1.1921,1.1895,1.1947,1.1956,1.2003,1.2025,1.1989,1.1993,1.2127,1.2129,1.2131,1.2144,0,0,0,0,0,0,1.1733,1.1747,1.1766,1.1802,1.1816,1.1884,1.1867,1.1872,1.1893,1.1892,1.1929,1.1934,1.1946,1.1997,1.2007,1.2029,1.1996,1.2125,1.2128,1.2131,1.2142,1.2146,1.215,0,0,0,0,0,1.1728,1.1767,1.1767,1.1779,1.1841,1.1886,1.1894,1.1907,1.1895,1.1915,1.1934,1.1933,1.202,1.2002,1.2013,1.2037,1.2124,1.2127,1.2131,1.214,1.2145,1.215,0,0,0,0,0,0,1.1734,1.1772,1.1773,1.1824,1.1852,1.1886,1.1911,1.1913,1.1944,1.1942,1.1957,1.1965,1.2012,1.2029,1.2008,1.2087,1.2071,1.2076,1.2074,1.208,1.2084,1.2079,1.1999,0,0,0,0,0,1.1742,1.1775,1.1806,1.1849,1.1862,1.1884,1.1904,1.1912,1.1941,1.1953,1.1975,1.2003,1.2037,1.2059,1.2092,1.2144,1.2151,1.2166,1.217,1.2173,1.2178,1.2206,1.2212,1.2143,1.2143,1.2143,0,0,1.1757,1.1782,1.1802,1.1851,1.1873,1.1907,1.1894,1.1931,1.1956,1.1958,1.2004,1.2021,1.2054,1.2103,1.2126,1.2119,1.2199,1.2177,1.2179,1.2183,1.221,1.2216,1.2222,1.2145,1.2144,1.2144,0,0,1.1803,1.1825,1.1863,1.1885,1.1918,1.1932,1.1941,1.1975,1.1986,1.2032,1.2034,1.2064,1.2122,1.2145,1.2164,1.2217,1.2217,1.2227,1.2249,1.2276,1.2281,1.2286,1.2305,1.2311,1.2231,1.2231,1.2231,0,1.1818,1.187,1.1882,1.1919,1.194,1.1942,1.198,1.2001,1.2044,1.2058,1.2049,1.2121,1.2143,1.2198,1.221,1.2226,1.2236,1.2223,1.228,1.2285,1.2289,1.2307,1.2314,1.2232,1.2232,1.2232,1.2232,0,1.1887,1.1922,1.1948,1.1989,1.2012,1.205,1.2067,1.209,1.2095,1.211,1.2156,1.2182,1.222,1.2233,1.2239,1.2288,1.2282,1.2276,1.2261,1.2297,1.2314,1.2321,1.2234,1.2233,1.2233,1.2233,0,0,1.194,1.1985,1.1995,1.2013,1.2049,1.2076,1.2113,1.2149,1.2168,1.2197,1.2228,1.2276,1.227,1.2292,1.23,1.2324,1.2363,1.2315,1.2316,1.2323,1.2418,1.2423,1.243,1.2363,1.2364,1.2365,1.2415,0,1.1989,1.2055,1.2066,1.2124,1.2156,1.2158,1.219,1.2215,1.223,1.2259,1.2275,1.2309,1.2299,1.2312,1.2335,1.2353,1.2382,1.235,1.2392,1.2393,1.2384,1.2439,1.2444,1.2491,1.2422,1.2423,1.2424,0,1.2057,1.2086,1.2147,1.2177,1.2191,1.222,1.2254,1.2282,1.231,1.2319,1.2342,1.2347,1.2385,1.2367,1.2418,1.2396,1.2413,1.2425,1.2427,1.2432,1.2411,1.2446,1.2506,1.2513,1.2435,1.2434,1.2433,0,1.2089,1.2144,1.2187,1.2202,1.2239,1.2259,1.2275,1.2303,1.2323,1.2353,1.2366,1.2399,1.2418,1.2443,1.2457,1.2442,1.2507,1.249,1.2515,1.2515,1.253,1.2529,1.2593,1.254,1.254,1.254,1.254,0,1.2144,1.218,1.2202,1.2228,1.2269,1.2282,1.2322,1.2338,1.2361,1.2391,1.2394,1.2422,1.2438,1.2467,1.2478,1.2519,1.2527,1.2535,1.2537,1.2535,1.2534,1.2547,1.2544,1.2542,1.2542,1.2541,1.2541,0,1.2187,1.2203,1.225,1.2281,1.2289,1.2318,1.2344,1.237,1.2383,1.242,1.2429,1.2451,1.2486,1.2501,1.2544,1.2551,1.2598,1.2598,1.2588,1.2589,1.2613,1.2611,1.2689,1.27,1.2639,1.264,1.264,0,1.2221,1.225,1.2283,1.2303,1.2319,1.2351,1.2372,1.2385,1.2407,1.244,1.2461,1.2496,1.2525,1.258,1.2599,1.2632,1.2633,1.2658,1.2638,1.2634,1.2633,1.2631,1.2634,1.2662,1.2662,1.2663,1.2663,0,1.228,1.2286,1.2316,1.2349,1.2373,1.24,1.2425,1.2441,1.2458,1.2482,1.2517,1.2539,1.2583,1.2617,1.265,1.2667,1.2668,1.2669,1.2676,1.2674,1.2668,1.2671,1.2598,1.2667,1.2667,1.2667,1.2666,1.2666,1.232,1.2345,1.2372,1.2405,1.2425,1.2449,1.2474,1.249,1.252,1.2556,1.2562,1.2599,1.2626,1.2671,1.2688,1.2717,1.2711,1.2722,1.2725,1.2727,1.2729,1.2662,1.2723,1.2723,1.2723,1.2723,1.2723,0,1.2379,1.2396,1.2426,1.2461,1.2487,1.2485,1.2513,1.2535,1.2568,1.2592,1.262,1.266,1.2693,1.2714,1.2747,1.2766,1.2767,1.2774,1.2773,1.2777,1.2732,1.2723,1.2773,1.2773,1.2773,1.2773,1.2773,1.2773,1.2412,1.2454,1.2463,1.2514,1.2531,1.2568,1.2584,1.2605,1.2625,1.2669,1.2697,1.271,1.2733,1.2767,1.2797,1.2802,1.2814,1.2822,1.2827,1.2785,1.278,1.2775,1.2766,1.2824,1.2824,1.2869,1.2869,1.2869]}]]